When you browse on this site, cookies collect data to enhance your experience and personalize the content and advertising you see.
Visit our Privacy Policy to learn more. By continuing to use the site, you agree to this use of cookies and data.
  • In Portugal
  • List of Countries
  • For 7 days
  • Water Temperature
  • Satellite Maps
  • Weather Map
  • Weather Widgets
  • user-avatar
    Login

    Hourly Weather Starokrasnoe

    Today, 24 June, Monday

    Time Temperature Precipitation Wind Pressure Humidity
    00:00 +17°C° 0 mm 4 mps 752 mmHg 96%
    01:00 +17°C° 0 mm 4 mps 753 mmHg 96%
    02:00 +15°C° 0 mm 4 mps 753 mmHg 97%
    03:00 +15°C° 0 mm 4 mps 753 mmHg 96%
    04:00 +15°C° 0 mm 4 mps 753 mmHg 95%
    05:00 +15°C° 0 mm 4 mps 753 mmHg 94%
    06:00 +17°C° 0 mm 4 mps 753 mmHg 90%
    07:00 +19°C° 0 mm 4 mps 754 mmHg 85%
    08:00 +20°C° 0 mm 5 mps 755 mmHg 80%
    09:00 +21°C° 0 mm 5 mps 755 mmHg 75%
    10:00 +22°C° 0 mm 5 mps 755 mmHg 70%
    11:00 +25°C° 0 mm 5 mps 755 mmHg 65%
    12:00 +25°C° 0 mm 5 mps 755 mmHg 64%
    13:00 +26°C° 0 mm 5 mps 755 mmHg 63%
    14:00 +26°C° 0 mm 5 mps 755 mmHg 62%
    15:00 +26°C° 0 mm 5 mps 755 mmHg 63%
    16:00 +25°C° 0 mm 5 mps 755 mmHg 64%
    17:00 +23°C° 0 mm 5 mps 755 mmHg 65%
    18:00 +22°C° 0 mm 4 mps 755 mmHg 71%
    19:00 +20°C° 0 mm 4 mps 756 mmHg 77%
    20:00 +19°C° 0 mm 3 mps 756 mmHg 82%
    21:00 +18°C° 0 mm 3 mps 756 mmHg 85%
    22:00 +17°C° 0 mm 3 mps 756 mmHg 87%
    23:00 +16°C° 0 mm 3 mps 757 mmHg 89%

    Tomorrow, 25 June, Tuesday

    Time Temperature Precipitation Wind Pressure Humidity
    00:00 +14°C° 0 mm 3 mps 757 mmHg 90%
    01:00 +14°C° 0 mm 3 mps 758 mmHg 90%
    02:00 +13°C° 0 mm 3 mps 758 mmHg 90%
    03:00 +14°C° 0 mm 3 mps 758 mmHg 90%
    04:00 +15°C° 0 mm 2 mps 758 mmHg 89%
    05:00 +15°C° 0 mm 2 mps 757 mmHg 88%
    06:00 +17°C° 0 mm 2 mps 758 mmHg 82%
    07:00 +19°C° 0 mm 2 mps 758 mmHg 76%
    08:00 +21°C° 0 mm 2 mps 759 mmHg 70%
    09:00 +22°C° 0 mm 3 mps 759 mmHg 65%
    10:00 +24°C° 0 mm 3 mps 759 mmHg 60%
    11:00 +25°C° 0 mm 3 mps 759 mmHg 55%
    12:00 +26°C° 0 mm 3 mps 759 mmHg 54%
    13:00 +26°C° 0 mm 3 mps 759 mmHg 54%
    14:00 +26°C° 0 mm 3 mps 759 mmHg 53%
    15:00 +26°C° 0 mm 3 mps 759 mmHg 56%
    16:00 +26°C° 0 mm 3 mps 758 mmHg 58%
    17:00 +25°C° 0 mm 3 mps 758 mmHg 61%
    18:00 +24°C° 0 mm 3 mps 758 mmHg 67%
    19:00 +21°C° 0 mm 3 mps 758 mmHg 74%
    20:00 +19°C° 0 mm 3 mps 759 mmHg 81%
    21:00 +18°C° 0 mm 2 mps 759 mmHg 83%
    22:00 +17°C° 0 mm 2 mps 759 mmHg 84%
    23:00 +16°C° 0 mm 1 mps 759 mmHg 86%

    Day after tomorrow, 26 June, Wednesday

    Time Temperature Precipitation Wind Pressure Humidity
    00:00 +16°C° 0 mm 1 mps 759 mmHg 86%
    01:00 +16°C° 0 mm 1 mps 759 mmHg 86%
    02:00 +15°C° 0 mm 1 mps 759 mmHg 85%
    03:00 +15°C° 0 mm 1 mps 759 mmHg 85%
    04:00 +16°C° 0 mm 1 mps 758 mmHg 84%
    05:00 +15°C° 0 mm 0 mps 758 mmHg 84%
    06:00 +16°C° 0 mm 0 mps 758 mmHg 79%
    07:00 +18°C° 0 mm 0 mps 758 mmHg 74%
    08:00 +20°C° 0 mm 0 mps 758 mmHg 68%
    09:00 +21°C° 0 mm 0 mps 758 mmHg 64%
    10:00 +24°C° 0 mm 1 mps 757 mmHg 59%
    11:00 +25°C° 0 mm 1 mps 757 mmHg 55%
    12:00 +26°C° 0 mm 1 mps 756 mmHg 53%
    13:00 +26°C° 0 mm 2 mps 756 mmHg 51%
    14:00 +27°C° 0 mm 2 mps 756 mmHg 49%
    15:00 +27°C° 0 mm 2 mps 755 mmHg 51%
    16:00 +27°C° 0 mm 2 mps 754 mmHg 53%
    17:00 +27°C° 0 mm 2 mps 754 mmHg 55%
    18:00 +25°C° 0 mm 2 mps 753 mmHg 61%
    19:00 +24°C° 0 mm 1 mps 753 mmHg 66%
    20:00 +22°C° 0 mm 1 mps 752 mmHg 72%
    21:00 +21°C° 0 mm 1 mps 752 mmHg 75%
    22:00 +19°C° 0 mm 2 mps 752 mmHg 77%
    23:00 +19°C° 0 mm 2 mps 751 mmHg 80%

    27 June, Thursday

    Time Temperature Precipitation Wind Pressure Humidity
    00:00 +18°C° 0 mm 2 mps 751 mmHg 82%
    01:00 +18°C° 0 mm 2 mps 750 mmHg 84%
    02:00 +18°C° 0 mm 3 mps 749 mmHg 86%
    03:00 +18°C° 0 mm 3 mps 748 mmHg 86%
    04:00 +19°C° 0 mm 4 mps 748 mmHg 85%
    05:00 +19°C° 0 mm 4 mps 747 mmHg 85%
    06:00 +20°C° 0.2 mm 5 mps 746 mmHg 83%
    07:00 +21°C° 0.2 mm 5 mps 745 mmHg 81%
    08:00 +22°C° 0.2 mm 6 mps 744 mmHg 79%
    09:00 +22°C° 1.3 mm 6 mps 744 mmHg 81%
    10:00 +23°C° 1.3 mm 6 mps 743 mmHg 83%
    11:00 +23°C° 1.3 mm 6 mps 742 mmHg 85%
    12:00 +23°C° 1.3 mm 6 mps 742 mmHg 84%
    13:00 +24°C° 1.3 mm 6 mps 741 mmHg 83%
    14:00 +24°C° 1.3 mm 6 mps 741 mmHg 82%
    15:00 +23°C° 0.6 mm 7 mps 741 mmHg 82%
    16:00 +22°C° 0.6 mm 7 mps 740 mmHg 83%
    17:00 +22°C° 0.6 mm 8 mps 740 mmHg 83%
    18:00 +20°C° 0.1 mm 7 mps 741 mmHg 82%
    19:00 +17°C° 0.1 mm 6 mps 741 mmHg 82%
    20:00 +15°C° 0.1 mm 5 mps 741 mmHg 82%
    21:00 +15°C° 0 mm 5 mps 742 mmHg 79%
    22:00 +15°C° 0 mm 5 mps 742 mmHg 76%
    23:00 +14°C° 0 mm 6 mps 742 mmHg 73%

    28 June, Friday

    Time Temperature Precipitation Wind Pressure Humidity
    00:00 +14°C° 0 mm 6 mps 742 mmHg 75%
    01:00 +13°C° 0 mm 6 mps 742 mmHg 76%
    02:00 +13°C° 0 mm 6 mps 742 mmHg 77%
    03:00 +11°C° 0 mm 6 mps 742 mmHg 77%
    04:00 +11°C° 0 mm 6 mps 742 mmHg 77%
    05:00 +10°C° 0 mm 7 mps 741 mmHg 78%
    06:00 +11°C° 0 mm 7 mps 741 mmHg 75%
    07:00 +12°C° 0 mm 8 mps 741 mmHg 73%
    08:00 +13°C° 0 mm 8 mps 741 mmHg 71%
    09:00 +15°C° 0 mm 9 mps 741 mmHg 69%
    10:00 +16°C° 0 mm 9 mps 741 mmHg 67%
    11:00 +17°C° 0 mm 9 mps 741 mmHg 66%
    12:00 +17°C° 0.4 mm 9 mps 741 mmHg 67%
    13:00 +17°C° 0.4 mm 8 mps 741 mmHg 68%
    14:00 +17°C° 0.4 mm 8 mps 741 mmHg 69%
    15:00 +17°C° 0.4 mm 8 mps 741 mmHg 71%
    16:00 +17°C° 0.4 mm 7 mps 741 mmHg 73%
    17:00 +16°C° 0.4 mm 6 mps 741 mmHg 75%
    18:00 +15°C° 0.1 mm 6 mps 741 mmHg 77%
    19:00 +14°C° 0.1 mm 5 mps 741 mmHg 78%
    20:00 +14°C° 0.1 mm 4 mps 741 mmHg 79%
    21:00 +13°C° 0 mm 5 mps 741 mmHg 78%
    22:00 +13°C° 0 mm 5 mps 741 mmHg 76%
    23:00 +12°C° 0 mm 5 mps 741 mmHg 75%

    29 June, Saturday

    Time Temperature Precipitation Wind Pressure Humidity
    00:00 +12°C° 0 mm 5 mps 741 mmHg 74%
    01:00 +12°C° 0 mm 5 mps 740 mmHg 73%
    02:00 +12°C° 0 mm 5 mps 740 mmHg 72%
    03:00 +11°C° 0.1 mm 6 mps 740 mmHg 73%
    04:00 +10°C° 0.1 mm 6 mps 740 mmHg 75%
    05:00 +10°C° 0.1 mm 6 mps 740 mmHg 77%
    06:00 +10°C° 0 mm 7 mps 740 mmHg 74%
    07:00 +10°C° 0 mm 8 mps 740 mmHg 72%
    08:00 +11°C° 0 mm 8 mps 740 mmHg 70%
    09:00 +11°C° 0 mm 8 mps 740 mmHg 69%
    10:00 +11°C° 0 mm 8 mps 741 mmHg 67%
    11:00 +11°C° 0 mm 8 mps 741 mmHg 66%
    12:00 +10°C° 0.1 mm 8 mps 741 mmHg 69%
    13:00 +10°C° 0.1 mm 7 mps 741 mmHg 71%
    14:00 +10°C° 0.1 mm 7 mps 741 mmHg 74%
    15:00 +11°C° 0.1 mm 7 mps 741 mmHg 71%
    16:00 +12°C° 0.1 mm 7 mps 741 mmHg 68%
    17:00 +12°C° 0.1 mm 7 mps 741 mmHg 65%
    18:00 +13°C° 0.1 mm 6 mps 741 mmHg 67%
    19:00 +11°C° 0.1 mm 6 mps 741 mmHg 69%
    20:00 +12°C° 0.1 mm 5 mps 741 mmHg 71%
    21:00 +12°C° 0 mm 5 mps 741 mmHg 68%
    22:00 +11°C° 0 mm 6 mps 741 mmHg 65%
    23:00 +11°C° 0 mm 6 mps 741 mmHg 62%
    Show more